Total_Precipitation_Accumulation
0.03 0.06 0.11 0.11 0.08 0.07 0.06 0.05 0.05 0.06 0.10 0.18 0.26 0.28 0.24 0.23 0.24 0.23 0.20 0.17 0.21 0.28 0.29 0.29 0.28 0.28 0.31 0.42 0.52 0.67 0.83 0.87 0.85 0.87 0.92 0.98 1.01 1.03 1.06 1.11 1.10 1.10 1.04 0.96
0.04 0.06 0.08 0.07 0.06 0.06 0.06 0.05 0.05 0.07 0.11 0.16 0.24 0.25 0.18 0.18 0.19 0.22 0.26 0.25 0.27 0.37 0.45 0.46 0.44 0.46 0.55 0.66 0.82 1.02 1.23 1.26 1.28 1.29 1.30 1.34 1.34 1.32 1.36 1.36 1.34 1.26 1.19 1.17
0.09 0.09 0.10 0.08 0.07 0.07 0.07 0.07 0.07 0.11 0.16 0.20 0.25 0.23 0.22 0.21 0.22 0.27 0.32 0.37 0.36 0.45 0.58 0.65 0.64 0.63 0.72 0.82 0.99 1.16 1.25 1.23 1.24 1.31 1.37 1.39 1.39 1.40 1.36 1.35 1.32 1.24 1.25 1.27
0.16 0.18 0.19 0.11 0.13 0.13 0.14 0.17 0.19 0.19 0.22 0.27 0.30 0.29 0.30 0.29 0.25 0.27 0.33 0.38 0.44 0.54 0.59 0.64 0.69 0.71 0.80 0.86 0.88 1.03 1.09 1.09 1.08 1.09 1.11 1.14 1.21 1.22 1.21 1.22 1.21 1.17 1.13 1.03
0.28 0.25 0.26 0.25 0.23 0.23 0.26 0.33 0.29 0.31 0.38 0.39 0.38 0.37 0.35 0.34 0.37 0.36 0.39 0.43 0.48 0.55 0.55 0.59 0.62 0.67 0.68 0.72 0.76 0.83 0.87 0.89 0.86 0.89 0.92 0.97 1.03 1.11 1.16 1.12 1.02 0.92 0.85 0.82
0.40 0.40 0.38 0.38 0.42 0.31 0.33 0.56 0.56 0.54 0.51 0.46 0.47 0.54 0.47 0.34 0.30 0.33 0.34 0.36 0.46 0.57 0.56 0.53 0.53 0.56 0.57 0.61 0.65 0.71 0.79 0.86 0.84 0.84 0.86 0.88 0.92 0.95 0.93 0.90 0.84 0.79 0.74 0.71
0.43 0.47 0.49 0.45 0.39 0.37 0.58 0.78 0.78 0.80 0.76 0.62 0.61 0.59 0.49 0.35 0.29 0.26 0.28 0.32 0.39 0.49 0.59 0.57 0.57 0.58 0.62 0.60 0.60 0.62 0.69 0.75 0.75 0.74 0.75 0.76 0.78 0.79 0.81 0.83 0.79 0.72 0.65 0.63
0.61 0.77 0.88 0.66 0.57 0.70 0.80 0.60 0.59 0.73 0.89 0.88 0.77 0.59 0.45 0.34 0.26 0.22 0.19 0.23 0.31 0.39 0.48 0.55 0.60 0.64 0.66 0.61 0.59 0.59 0.67 0.69 0.66 0.65 0.66 0.66 0.66 0.67 0.68 0.70 0.67 0.62 0.59 0.59
0.88 0.98 0.89 0.74 0.72 0.67 0.74 0.82 0.83 0.90 1.02 1.00 0.85 0.60 0.40 0.29 0.22 0.17 0.16 0.17 0.20 0.26 0.36 0.43 0.54 0.62 0.68 0.67 0.65 0.65 0.69 0.70 0.65 0.62 0.65 0.68 0.71 0.72 0.72 0.70 0.68 0.62 0.57 0.48
0.94 1.06 0.90 0.72 0.72 0.70 0.75 0.94 0.99 0.91 0.87 0.81 0.71 0.57 0.42 0.30 0.21 0.17 0.16 0.17 0.19 0.26 0.32 0.35 0.41 0.50 0.59 0.65 0.70 0.72 0.70 0.65 0.61 0.60 0.61 0.66 0.75 0.79 0.79 0.77 0.72 0.64 0.58 0.52
0.98 1.12 1.05 0.93 0.83 0.76 0.80 0.82 0.91 0.83 0.80 0.72 0.61 0.54 0.47 0.38 0.30 0.25 0.22 0.23 0.25 0.28 0.30 0.32 0.36 0.41 0.49 0.57 0.63 0.65 0.66 0.63 0.60 0.57 0.58 0.61 0.65 0.67 0.63 0.63 0.59 0.54 0.49 0.48
1.13 1.15 1.25 1.14 0.92 0.80 0.85 0.80 0.78 0.74 0.75 0.70 0.59 0.53 0.50 0.48 0.43 0.38 0.33 0.32 0.32 0.34 0.34 0.32 0.35 0.39 0.41 0.48 0.60 0.67 0.68 0.63 0.58 0.54 0.54 0.54 0.55 0.56 0.56 0.49 0.46 0.42 0.41 0.38
0.85 1.02 1.14 1.01 0.81 0.75 0.72 0.73 0.74 0.72 0.70 0.65 0.62 0.56 0.52 0.52 0.52 0.50 0.48 0.46 0.43 0.40 0.39 0.38 0.36 0.38 0.39 0.40 0.51 0.62 0.64 0.63 0.57 0.52 0.51 0.49 0.48 0.50 0.54 0.52 0.43 0.39 0.42 0.36
0.73 0.87 1.02 0.93 0.87 0.81 0.63 0.59 0.63 0.64 0.66 0.63 0.63 0.57 0.48 0.45 0.46 0.46 0.46 0.41 0.37 0.33 0.32 0.32 0.32 0.36 0.38 0.39 0.45 0.51 0.53 0.54 0.49 0.45 0.46 0.46 0.45 0.47 0.52 0.58 0.62 0.54 0.48 0.44
0.70 0.71 0.71 0.67 0.71 0.75 0.65 0.55 0.53 0.56 0.55 0.57 0.58 0.53 0.45 0.44 0.44 0.44 0.41 0.36 0.35 0.35 0.32 0.29 0.29 0.30 0.32 0.36 0.41 0.41 0.43 0.39 0.35 0.36 0.39 0.40 0.42 0.43 0.45 0.49 0.55 0.54 0.47 0.44
0.64 0.55 0.51 0.54 0.56 0.59 0.61 0.55 0.53 0.53 0.47 0.48 0.52 0.50 0.47 0.44 0.43 0.40 0.37 0.37 0.36 0.39 0.39 0.35 0.32 0.29 0.28 0.30 0.38 0.38 0.36 0.38 0.30 0.27 0.30 0.34 0.38 0.39 0.39 0.44 0.47 0.48 0.45 0.44
0.53 0.48 0.45 0.44 0.42 0.46 0.50 0.48 0.45 0.42 0.39 0.39 0.42 0.41 0.38 0.37 0.35 0.36 0.36 0.33 0.31 0.32 0.36 0.39 0.37 0.35 0.34 0.35 0.38 0.41 0.36 0.33 0.33 0.28 0.28 0.31 0.35 0.38 0.38 0.43 0.48 0.47 0.41 0.33
0.45 0.38 0.38 0.38 0.33 0.36 0.39 0.35 0.31 0.27 0.27 0.26 0.28 0.29 0.29 0.28 0.28 0.29 0.29 0.26 0.23 0.24 0.25 0.28 0.29 0.28 0.29 0.30 0.33 0.39 0.38 0.34 0.32 0.31 0.30 0.29 0.27 0.32 0.33 0.33 0.35 0.38 0.40 0.34
0.40 0.37 0.36 0.35 0.31 0.30 0.28 0.25 0.22 0.19 0.18 0.19 0.22 0.24 0.23 0.22 0.21 0.20 0.20 0.22 0.23 0.24 0.21 0.16 0.19 0.19 0.23 0.28 0.28 0.29 0.33 0.30 0.28 0.28 0.28 0.25 0.27 0.30 0.29 0.30 0.35 0.41 0.44 0.48
0.38 0.32 0.29 0.28 0.24 0.22 0.21 0.20 0.18 0.16 0.17 0.17 0.20 0.20 0.19 0.18 0.16 0.16 0.16 0.19 0.21 0.20 0.14 0.10 0.10 0.13 0.17 0.21 0.24 0.24 0.27 0.26 0.22 0.23 0.25 0.27 0.28 0.30 0.30 0.30 0.36 0.44 0.51 0.59
0.41 0.29 0.23 0.22 0.18 0.16 0.18 0.18 0.16 0.15 0.15 0.15 0.17 0.18 0.17 0.15 0.13 0.13 0.15 0.19 0.18 0.13 0.11 0.12 0.11 0.11 0.11 0.15 0.18 0.20 0.26 0.28 0.26 0.25 0.24 0.26 0.28 0.29 0.29 0.32 0.39 0.51 0.59 0.64
0.44 0.35 0.26 0.22 0.18 0.18 0.19 0.19 0.14 0.11 0.11 0.12 0.14 0.14 0.14 0.15 0.14 0.15 0.17 0.19 0.18 0.18 0.13 0.11 0.09 0.09 0.08 0.09 0.11 0.16 0.21 0.29 0.31 0.30 0.25 0.24 0.27 0.30 0.31 0.34 0.40 0.45 0.53 0.57
0.40 0.33 0.28 0.24 0.21 0.20 0.20 0.19 0.17 0.16 0.15 0.14 0.12 0.11 0.11 0.13 0.14 0.18 0.22 0.20 0.17 0.16 0.12 0.11 0.10 0.07 0.06 0.07 0.10 0.15 0.17 0.20 0.24 0.25 0.25 0.24 0.27 0.32 0.34 0.34 0.33 0.36 0.44 0.50
0.36 0.31 0.27 0.22 0.19 0.20 0.20 0.19 0.17 0.17 0.19 0.19 0.16 0.13 0.13 0.15 0.18 0.21 0.26 0.28 0.23 0.18 0.15 0.14 0.09 0.07 0.08 0.11 0.13 0.15 0.15 0.15 0.16 0.18 0.19 0.20 0.22 0.26 0.27 0.27 0.27 0.28 0.36 0.48
0.34 0.30 0.26 0.22 0.21 0.19 0.17 0.16 0.17 0.18 0.17 0.19 0.19 0.19 0.19 0.21 0.26 0.32 0.33 0.31 0.29 0.24 0.19 0.15 0.11 0.10 0.10 0.12 0.13 0.13 0.15 0.17 0.17 0.14 0.14 0.18 0.20 0.21 0.21 0.21 0.23 0.26 0.31 0.40
0.33 0.27 0.24 0.21 0.21 0.20 0.18 0.17 0.19 0.21 0.20 0.21 0.22 0.19 0.18 0.22 0.29 0.38 0.38 0.35 0.29 0.23 0.20 0.17 0.14 0.12 0.11 0.12 0.13 0.14 0.15 0.18 0.20 0.18 0.17 0.18 0.19 0.19 0.18 0.20 0.24 0.28 0.32 0.33
0.35 0.27 0.23 0.22 0.23 0.22 0.21 0.21 0.21 0.24 0.26 0.27 0.27 0.24 0.26 0.31 0.37 0.40 0.38 0.35 0.30 0.24 0.18 0.12 0.11 0.12 0.13 0.14 0.14 0.14 0.15 0.16 0.20 0.29 0.43 0.49 0.34 0.20 0.19 0.20 0.23 0.29 0.34 0.33